MITEE-1 (47314 NORAD) Tracking and Keplerian Element Data

This shows tracking and keplerian element data for the satellite.

Feedback or suggestion? Click here.




ElementValue
Catalog47314
NameMITEE-1
Epoch Orbit635
Epoch Day59.76332752
Epoch Year2021
RAAN337.6768
Inclination60.6879
Eccentricity0.0016376
Argument of Perigee318.0363
Mean Anonmoly41.9468
Mean Motion15.22487381
Decay Rate2.589E-05
L11 47314U 21002F 21059.76332752 .00002589 00000-0 12223-3 0 9993
L22 47314 60.6879 337.6768 0016376 318.0363 41.9468 15.22487381 6351

Live tracking and technical data element details for MITEE-1 (NORAD 47314). MITEE-1 can be tracked NOW for your location showing map with azimuth and elevation plus other details from your city location.

Track the satellite on the map from your city or location and see movement details for azimuth, elevation, latitude, longitude, range, height, and movement on the map or in text.







IsCatalogInMostPopularTable: catalog: 47314, numindb: 10
Update: records affected: 1



GetName: 47314 MITEE-1

Hit Count: updated at: Mon, 01 Mar 2021 22:28:17 GMT